Overview Statistics Trail Chart Weather Telemetry Raw packets
 

This is the latest recevied weather packets stored in our database for station/object N5ATR. If no packets are shown the sender has not sent any weather packets the latest 10 day(s).

<< 3 4 5 6 7 8 9 >>
Time Temp. Humidity Pressure Rain* Wind** Luminosity Snow
1788664794 20° C 53% 1022.2 hPa 0 mm - 0 W/m² -
1788664490 20.56° C 52% 1022 hPa 0 mm - 0 W/m² -
1788664185 20° C 52% 1022 hPa 0 mm - 0 W/m² -
1788663880 20° C 51% 1022 hPa 0 mm - 0 W/m² -
1788663574 20.56° C 51% 1021.8 hPa 0 mm - 0 W/m² -
1788663274 21.11° C 49% 1021.9 hPa 0 mm - 0 W/m² -
1788662973 21.67° C 47% 1021.7 hPa 0 mm - 0 W/m² -
1788662673 21.11° C 48% 1021.5 hPa 0 mm - 0 W/m² -
1788662373 20.56° C 49% 1021.5 hPa 0 mm - 0 W/m² -
1788662070 21.11° C 47% 1021.5 hPa 0 mm - 0 W/m² -
1788661770 21.11° C 45% 1021.4 hPa 0 mm - 0 W/m² -
1788661465 21.67° C 43% 1021.5 hPa 0 mm - 0 W/m² -
1788661161 22.22° C 43% 1021.5 hPa 0 mm - 0 W/m² -
1788660861 22.78° C 42% 1021.4 hPa 0 mm - 0 W/m² -
1788660560 22.78° C 42% 1021.3 hPa 0 mm - 0 W/m² -
1788660255 23.33° C 41% 1021.3 hPa 0 mm - 0 W/m² -
1788659949 23.33° C 40% 1021.3 hPa 0 mm - 0 W/m² -
1788659649 23.33° C 40% 1021.2 hPa 0 mm - 0 W/m² -
1788659349 23.89° C 39% 1021.2 hPa 0 mm - 0 W/m² -
1788659049 24.44° C 39% 1021.3 hPa 0 mm - 0 W/m² -
1788658745 25° C 38% 1021.3 hPa 0 mm - 1 W/m² -
1788658441 25° C 37% 1021 hPa 0 mm - 1 W/m² -
1788658136 25° C 37% 1021 hPa 0 mm - 2 W/m² -
1788657831 25.56° C 36% 1021 hPa 0 mm - 4 W/m² -
1788657530 25.56° C 36% 1021.2 hPa 0 mm - 7 W/m² -

* Rain latest hour (hover to see other rain measurements)
** Current wind speed in m/s (hover to see current wind gust speed)